Weather Roundup
Issued by NWS

Home | Current Version | Previous Version | Graphics & Text | Print | Product List | Glossary Off
Versions: 1 2 3 4 5 6 7 8 9 10 11 12 13 14 15 16 17 18 19 20 21 22 23 24 25 26 27 28 29 30 31 32 33 34 35 36 37 38 39 40 41 42 43 44 45 46 47 48 49 50

000
NZUS93 KARX 200710
HRRWXR

CURRENT HOURLY OBSERVATIONS ACROSS
MUCH OF THE UPPER MISSISSIPPI VALLEY
NATIONAL WEATHER SERVICE LA CROSSE WI
200 AM CDT SUN AUG 20 2017


...SOUTHEAST MINNESOTA...


CITY           SKY/WX    TMP DP  RH WIND       PRES   REMARKS
ROCHESTER      CLOUDY    61  60  97 S8        29.93F
ROCHESTER/MAYO FAIR      65  62  90 SE7       29.93F
WINONA         CLEAR     63  61  94 CALM      29.93F
AUSTIN         PTCLDY    64  61  88 S6        29.92F
ALBERT LEA     CLOUDY    70  66  88 S8        29.90F
DODGE CENTER   CLOUDY    61  59  94 SE7       29.92F
PRESTON        CLOUDY    61  58  90 S5        29.95S
OWATONNA       CLOUDY    66  63  88 SE10      29.90F
FARIBAULT      CLOUDY    66  63  88 SE6       29.89F
$$

...ELSEWHERE IN MINNESOTA...


CITY           SKY/WX    TMP DP  RH WIND       PRES   REMARKS
MINNEAPOLIS    PTCLDY    69  62  78 S5        29.89F
INTNL FALLS    CLEAR     62  58  86 CALM      29.80F
DULUTH         CLEAR     62  59  90 SW5       29.89S
RED WING       PTCLDY    64  61  88 CALM      29.90S
REDWOOD FALLS  CLOUDY    66  63  90 SE6       29.83F
MANKATO        CLOUDY    66  63  90 S7        29.88F
WORTHINGTON    CLOUDY    69  63  81 SE6       29.86F
FAIRMONT       CLOUDY    66  64  93 SE8       29.86F
$$

...SOUTHWEST WISCONSIN...


CITY           SKY/WX    TMP DP  RH WIND       PRES   REMARKS
LA CROSSE      CLEAR     66  62  87 SE7       29.93F
PRAIRIE DU CHI CLOUDY    61  59  94 SE3       29.95F
BOSCOBEL       FOG       58  57  97 CALM      29.97S VSB 1/4
LONE ROCK      CLEAR     59  59 100 CALM      29.97S
PLATTEVILLE    CLEAR     63  62  97 SE7       29.98F
FORT MC COY    CLEAR     53  53  99 CALM      29.96F
CAMP DOUGLAS   CLEAR     59  59 100 CALM      29.96S
MAUSTON-NEW LI SUNNY     57  57  98 CALM      29.96S
VIROQUA        FAIR      63  61  93 CALM      29.97S
WIS DELLS      CLEAR     60  57  90 CALM      29.98S
$$

...ELSEWHERE IN WISCONSIN...


CITY           SKY/WX    TMP DP  RH WIND       PRES   REMARKS
MILWAUKEE      CLEAR     67  58  72 SW6       30.01R
MADISON        CLEAR     61  60  97 CALM      29.98F
GREEN BAY      CLEAR     59  59 100 CALM      29.97R
EAU CLAIRE     CLEAR     61  60  97 CALM      29.92S
BLACK RVR FLS  PTSUNNY   53  53 100 CALM      29.95S FOG
MEDFORD        CLEAR     57  56  95 S3        29.97S
WAUSAU         CLEAR     59  58  96 E5        29.96S
WIS RAPIDS     CLEAR     58  57  97 CALM      29.98F
MARSHFIELD     CLEAR     60  57  89 CALM      29.96F
RICE LAKE      CLEAR     59  58  98 CALM      29.93F FOG
$$

...NORTHEAST IOWA...


CITY           SKY/WX    TMP DP  RH WIND       PRES   REMARKS
WATERLOO       CLOUDY    66  62  87 SE6       29.91F
DUBUQUE        CLEAR     63  59  87 S7        29.98S
DECORAH        CLOUDY    63  61  94 S5        29.94F
MASON CITY     CLOUDY    65  62  90 SE9       29.91F
CHARLES CITY   CLOUDY    64  64 100 SE6       29.93F
OELWEIN        CLOUDY    63  63 100 SE7       29.94F
$$

...ELSEWHERE IN IOWA...


CITY           SKY/WX    TMP DP  RH WIND       PRES   REMARKS
DES MOINES     CLOUDY    71  62  73 S7        29.89F
IOWA CITY      CLOUDY    67  62  84 SE3       29.96F
FORT DODGE     CLOUDY    70  63  78 SE6       29.90F
MARSHALLTOWN   PTCLDY    67  64  90 SE7       29.90F
CEDAR RAPIDS   CLOUDY    64  62  93 SE6       29.94F
$$

...NORTHERN ILLINOIS...


CITY           SKY/WX    TMP DP  RH WIND       PRES   REMARKS
CHICAGO-OHARE  CLEAR     67  56  67 CALM      30.00S
CHICAGO-MIDWAY CLEAR     71  57  61 S5        30.01R
MOLINE         CLEAR     65  60  84 E5        29.97S
ROCKFORD       CLEAR     61  59  93 CALM      30.00F
PEORIA         CLEAR     70  64  81 CALM      29.99S
$$

NOTE: "FAIR" INDICATES FEW OR NO CLOUDS BELOW 12,000 FEET WITH NO
SIGNIFICANT WEATHER AND/OR OBSTRUCTIONS TO VISIBILITY. WIND
SPEEDS ARE IN MILES-PER-HOUR.




USA.gov is the U.S. government's official web portal to all federal, state and local government web resources and services.